Content
SEND FEEDBACK

Daily
Averages
Monthly
Summary
Australia

SOUTH HEDLAND, WESTERN AUSTRALIA


Home > Oceania > Australia > Western Australia
Elevation: 26 feet     Latitude: 20 22S     Longitude: 118 37E

WEATHER
 
SELECT A DAY
Number of Records: 290,534;   Date Range: 7/1/96 - 12/21/14
 
SHARE

PRINT THIS DATA

[ ← Previous Day ]
WEATHER ALMANAC - FEBRUARY 13, 2013
[ Next Day → ]
[ °C ]   °F
Weather ElementAverageHighLow
Temperature87.4 °F96.8 °F (3:00 pm)78.8 °F (4:00 am)
Dewpoint72.7 °F77 °F (8:00 am)68 °F (12:00 am)
Humidity60.8 %79 % (11:00 pm)38 % (3:00 pm)
Barometer29.74 in29.80 in (9:00 am)29.65 in (6:00 pm)
Wind Speed8.6 mph19.6 mph (5:00 pm)
Weather ElementAverage
Visibility7.1 mi
Wind DirectionSW (229.3 °)

Weather ElementTotal
Precipitation---
Cooling Degree Days22.8 (Base 65)
Growing Degree Days37.8 (Base 50)
Averaged from 63 records on February 13, 2013
WEATHER CONDITIONS BREAKOUT
WIND DIRECTION BREAKOUT
WEATHER BY HOUR - FEBRUARY 13, 2013
[ °C ]   °F
Local TimeTemperatureDewpointHumidityBarometerVisibilityWind DirectionWind SpeedGust SpeedPrecipitationEventsConditions
12:00 AM80.6 °F68.0 °F65 %29.77 in6.2 miSouth (170°)5.8 mph
12:30 AM80.6 °F68.0 °F65 %29.77 in6.2 miSSE (150°)4.6 mph
1:00 AM80.6 °F68.0 °F65 %29.77 in6.2 miSouth (180°)4.6 mph
1:30 AM80.6 °F68.0 °F65 %29.77 in6.2 miSouth (190°)6.9 mph
2:00 AM80.0 °F68.0 °F58 %29.77 inSouth (190°)5.8 mph
2:00 AM80.6 °F68.0 °F65 %29.77 in6.2 miSouth (190°)5.8 mph
2:30 AM80.6 °F69.8 °F70 %29.77 in6.2 miSSE (150°)1.2 mph
3:00 AM80.6 °F69.8 °F70 %29.74 in6.2 miCalm
3:00 AM80.0 °F70.0 °F64 %29.76 inCalm
3:30 AM80.6 °F71.6 °F74 %29.77 in6.2 miCalm
4:00 AM78.8 °F69.8 °F74 %29.74 in6.2 miCalm
4:30 AM80.6 °F69.8 °F70 %29.74 inCalm
5:00 AM80.0 °F69.0 °F63 %29.76 inCalm
5:00 AM80.6 °F69.8 °F70 %29.74 in6.2 miCalm
5:30 AM80.6 °F69.8 °F70 %29.77 in6.2 miCalm
6:00 AM80.6 °F71.6 °F74 %29.77 inCalmClear
6:00 AM80.0 °F71.0 °F66 %29.77 in12.0 miCalmScattered Clouds
6:30 AM80.6 °F71.6 °F74 %29.77 inCalmClear
7:00 AM84.2 °F73.4 °F70 %29.77 inCalmClear
7:30 AM87.8 °F75.2 °F66 %29.77 inNorth (360°)5.8 mphClear
8:00 AM88.0 °F77.0 °F62 %29.79 inNorth (10°)6.9 mph
8:00 AM87.8 °F77.0 °F70 %29.77 inNorth (10°)6.9 mphClear
8:30 AM89.6 °F77.0 °F66 %29.77 inNNW (340°)6.9 mphClear
9:00 AM91.4 °F75.2 °F59 %29.80 in6.2 miNW (320°)8.1 mphPartly Cloudy
9:00 AM91.0 °F75.0 °F51 %29.80 in19.0 miNW (320°)8.1 mphPartly Cloudy
9:30 AM91.4 °F75.2 °F59 %29.77 inNW (320°)6.9 mphClear
10:00 AM91.4 °F73.4 °F55 %29.77 in6.2 miNNW (330°)6.9 mphPartly Cloudy
10:30 AM93.2 °F75.2 °F56 %29.77 in6.2 miNNW (330°)8.1 mph
11:00 AM94.0 °F74.0 °F44 %29.78 inNorth10.4 mph
11:00 AM93.2 °F75.2 °F56 %29.77 in6.2 miNorth (360°)10.4 mphPartly Cloudy
11:30 AM93.2 °F73.4 °F52 %29.77 in6.2 miNorth (10°)10.4 mph
12:00 PM95.0 °F73.4 °F49 %29.74 inNorth (350°)10.4 mphClear
12:00 PM94.0 °F73.0 °F41 %29.76 inNorth (350°)10.4 mph
12:30 PM93.2 °F71.6 °F49 %29.74 inNorth (350°)10.4 mphClear
1:00 PM95.0 °F71.6 °F47 %29.74 inNNW (340°)13.8 mphClear
1:30 PM95.0 °F73.4 °F49 %29.71 inNNW (330°)16.1 mphClear
2:00 PM94.0 °F72.0 °F40 %29.72 inNNW (340°)15.0 mph
2:00 PM95.0 °F71.6 °F47 %29.71 inNNW (340°)15.0 mphClear
2:30 PM95.0 °F71.6 °F47 %29.71 inNNW (330°)15.0 mphClear
3:00 PM96.8 °F73.4 °F47 %29.68 inNW (320°)16.1 mphClear
3:00 PM96.0 °F73.0 °F38 %29.70 in19.0 miNW (320°)16.1 mphScattered Clouds
3:30 PM95.0 °F71.6 °F47 %29.68 in6.2 miNNW (330°)18.4 mph
4:00 PM93.2 °F71.6 °F49 %29.68 in6.2 miNNW (340°)16.1 mph
4:30 PM93.2 °F71.6 °F49 %29.68 in6.2 miNNW (340°)18.4 mph
5:00 PM92.0 °F71.0 °F42 %29.69 inNW (310°)19.6 mph
5:00 PM93.2 °F71.6 °F49 %29.68 in6.2 miNW (310°)19.6 mph
5:30 PM91.4 °F73.4 °F55 %29.68 in6.2 miNW (310°)19.6 mph
6:00 PM89.6 °F73.4 °F59 %29.65 in6.2 miNW (310°)17.3 mph
6:00 PM90.0 °F73.0 °F49 %29.68 inNW (310°)17.3 mph
6:30 PM87.8 °F73.4 °F62 %29.65 in6.2 miNNW (330°)15.0 mph
7:00 PM87.8 °F73.4 °F62 %29.68 in6.2 miWNW (300°)11.5 mph
7:30 PM87.8 °F75.2 °F66 %29.71 in6.2 miWest (280°)10.4 mph
8:00 PM86.0 °F74.0 °F61 %29.73 inWest (270°)8.1 mph
8:00 PM86.0 °F75.2 °F70 %29.71 in6.2 miWest (270°)8.1 mph
8:30 PM86.0 °F75.2 °F70 %29.71 in6.2 miWest (280°)1.2 mph
9:00 PM84.2 °F75.2 °F74 %29.74 in6.2 miWest (270°)6.9 mph
9:00 PM84.0 °F76.0 °F70 %29.75 inWest (270°)6.9 mph
9:30 PM84.2 °F75.2 °F74 %29.74 in6.2 miWest (260°)10.4 mph
10:00 PM84.2 °F75.2 °F74 %29.74 in6.2 miWest (280°)10.4 mph
10:30 PM84.2 °F75.2 °F74 %29.77 in6.2 miWNW (290°)10.4 mph
11:00 PM84.0 °F76.0 °F72 %29.77 inWest (260°)9.2 mph
11:00 PM84.2 °F77.0 °F79 %29.77 in6.2 miWest (260°)9.2 mph
11:30 PM84.2 °F77.0 °F79 %29.74 in6.2 miWest (280°)6.9 mph
Hourly data recorded from YPPD, located miles away from South Hedland, Western Australia







STORIES FROM OUR PARTNERS